TimePST,TemperatureF,Dew PointF,Humidity,Sea Level PressureIn,VisibilityMPH,Wind Direction,Wind SpeedMPH,Gust SpeedMPH,PrecipitationIn,Events,Conditions,WindDirDegrees,DateUTC
12:56 AM,30.9,28.0,89,29.76,10.0,South,6.9,-,N/A,,Clear,170,2014-02-07 08:56:00
1:56 AM,32.0,28.9,88,29.76,10.0,SSE,8.1,-,N/A,,Clear,150,2014-02-07 09:56:00
2:56 AM,33.1,28.9,85,29.76,10.0,SSE,8.1,-,N/A,,Clear,150,2014-02-07 10:56:00
3:56 AM,32.0,28.0,85,29.77,10.0,SE,3.5,-,N/A,,Clear,140,2014-02-07 11:56:00
4:56 AM,34.0,28.0,79,29.78,10.0,Calm,Calm,-,N/A,,Clear,0,2014-02-07 12:56:00
5:56 AM,35.1,27.0,72,29.80,10.0,SSW,6.9,-,N/A,,Partly Cloudy,200,2014-02-07 13:56:00
6:13 AM,36.0,26.1,67,29.87,10.0,South,4.6,-,N/A,,Mostly Cloudy,180,2014-02-07 14:13:00
6:56 AM,35.1,26.1,70,29.81,10.0,SSE,5.8,-,N/A,,Overcast,150,2014-02-07 14:56:00
7:56 AM,37.9,25.0,60,29.81,10.0,South,12.7,-,N/A,,Mostly Cloudy,190,2014-02-07 15:56:00
8:56 AM,41.0,26.1,55,29.83,10.0,South,8.1,-,N/A,,Overcast,190,2014-02-07 16:56:00
9:56 AM,46.0,25.0,44,29.83,10.0,SSE,12.7,-,N/A,,Overcast,150,2014-02-07 17:56:00
10:56 AM,48.9,25.0,39,29.83,10.0,South,15.0,-,N/A,,Overcast,190,2014-02-07 18:56:00
11:56 AM,50.0,25.0,38,29.81,10.0,SSW,18.4,-,N/A,,Overcast,200,2014-02-07 19:56:00
12:56 PM,51.1,24.1,35,29.78,10.0,SSW,16.1,24.2,N/A,,Overcast,210,2014-02-07 20:56:00
1:56 PM,51.1,24.1,35,29.76,10.0,SSW,15.0,21.9,N/A,,Overcast,200,2014-02-07 21:56:00
2:56 PM,51.1,25.0,36,29.76,10.0,SSW,15.0,-,N/A,,Overcast,210,2014-02-07 22:56:00
3:56 PM,50.0,26.1,39,29.75,10.0,SSW,16.1,20.7,N/A,,Overcast,210,2014-02-07 23:56:00
4:56 PM,48.9,27.0,43,29.74,10.0,SSW,12.7,-,N/A,,Mostly Cloudy,200,2014-02-08 00:56:00
5:56 PM,46.9,28.0,48,29.75,10.0,SSE,9.2,-,N/A,,Mostly Cloudy,160,2014-02-08 01:56:00
6:56 PM,42.1,28.9,60,29.76,10.0,Variable,3.5,-,N/A,,Mostly Cloudy,0,2014-02-08 02:56:00
7:56 PM,42.1,28.9,60,29.77,10.0,South,8.1,-,N/A,,Mostly Cloudy,190,2014-02-08 03:56:00
8:56 PM,41.0,28.0,60,29.80,10.0,South,5.8,-,N/A,,Mostly Cloudy,180,2014-02-08 04:56:00
9:56 PM,42.1,28.0,58,29.81,10.0,SSW,3.5,-,N/A,,Mostly Cloudy,200,2014-02-08 05:56:00
10:56 PM,43.0,28.9,58,29.82,10.0,SW,5.8,-,N/A,,Mostly Cloudy,220,2014-02-08 06:56:00
11:56 PM,45.0,30.0,56,29.83,10.0,SW,13.8,-,N/A,,Clear,220,2014-02-08 07:56:00